Theta_e
320 321 320 321 322 322 322 321 320 319 319 318 319 318 318 319 319 319 319 319 317 317 316 315 315 316 314 313 312 310 309 309 307 293 292 291 291 290 289 289 288 289 290
320 320 320 321 321 322 322 323 322 321 318 319 319 318 318 319 320 319 318 317 317 316 316 314 314 312 311 312 310 309 308 307 307 297 288 287 289 290 289 287 286 287 287
318 319 319 320 321 322 322 323 323 321 318 318 317 318 319 319 318 318 318 317 316 316 316 313 312 310 307 309 308 307 307 301 304 292 287 287 285 286 285 285 285 285 285
315 316 316 317 318 320 321 320 319 319 319 317 318 318 315 315 312 311 309 310 310 309 309 309 309 307 307 304 302 302 299 298 293 290 287 285 284 284 285 284 282 283 284
311 311 311 306 306 308 309 309 306 307 308 308 306 306 305 305 302 304 304 305 304 303 300 298 301 299 296 300 300 297 296 292 287 287 287 285 284 282 283 284 285 283 282
304 303 300 300 301 301 300 297 296 296 298 299 299 300 300 297 296 297 299 299 297 295 296 296 294 291 292 295 297 297 298 293 290 289 287 286 286 285 285 283 284 280 278
296 295 294 293 293 292 292 292 292 293 294 294 294 294 294 295 296 296 294 295 295 296 294 292 292 291 289 291 294 295 294 296 294 293 288 289 288 287 286 284 284 282 280
291 290 290 292 291 291 291 291 290 291 291 291 291 293 294 294 296 296 292 292 293 292 291 291 290 290 290 289 288 287 286 288 290 288 288 288 288 287 287 286 285 282 279
289 290 290 291 290 289 289 290 290 290 290 290 290 289 291 290 294 294 290 289 289 289 289 289 289 288 290 291 287 286 285 285 289 289 288 289 289 289 286 283 280 279 277
287 289 290 289 290 290 288 288 286 286 287 287 287 287 286 287 292 293 290 286 286 285 287 287 287 286 289 291 286 286 286 285 285 285 285 287 288 287 287 285 283 281 279
286 287 288 289 289 288 287 286 286 287 287 286 286 285 286 287 289 292 292 287 286 285 285 285 285 288 289 290 291 286 286 285 286 285 284 284 283 284 284 284 283 282 279
286 287 287 287 286 287 287 286 286 287 286 286 286 285 284 285 288 290 291 291 290 286 285 284 284 288 288 289 288 290 289 286 284 283 282 281 281 282 282 282 280 279 276
286 285 286 286 286 286 286 286 286 286 286 284 285 284 284 284 285 288 289 289 290 286 285 286 288 288 288 287 288 290 285 283 282 281 281 281 281 280 279 277 277 276 275
285 284 285 285 285 285 285 286 286 285 285 285 285 284 284 284 285 285 285 285 285 286 287 285 286 286 286 286 284 285 284 282 282 281 281 279 278 277 276 275 271 271 269
282 282 282 283 283 283 283 284 284 285 286 284 283 283 283 283 284 287 287 285 285 286 284 284 283 282 282 282 282 283 283 282 281 281 279 278 276 273 273 274 274 272 271
279 279 279 280 280 281 283 282 286 286 286 287 286 284 283 286 287 287 288 288 289 289 284 282 281 281 279 280 280 277 280 283 282 281 280 279 277 276 276 274 275 273 273
277 276 276 277 277 277 279 280 279 282 284 284 284 284 285 285 286 286 287 287 288 286 284 283 282 282 280 280 280 279 280 278 278 277 278 275 274 274 273 274 272 273 272
275 276 277 277 276 275 275 273 273 274 272 269 276 277 281 282 282 282 283 280 274 277 279 279 279 280 281 281 279 280 280 280 278 277 275 275 275 276 274 272 273 272 271
275 275 275 274 273 273 272 271 271 270 267 263 265 271 269 277 277 277 276 272 274 271 272 272 272 272 272 273 274 276 278 279 279 278 269 271 274 274 275 274 274 273 272
271 271 271 270 270 269 269 270 268 266 264 262 262 262 262 264 262 261 263 263 264 263 263 263 263 264 265 266 266 265 267 270 273 275 276 272 271 272 274 274 274 273 273
268 267 268 267 266 265 265 265 264 262 261 258 257 262 270 259 256 256 258 259 259 260 261 260 260 260 263 263 263 264 265 266 267 268 269 269 270 272 274 274 274 274 273
266 265 265 264 264 263 261 261 260 259 257 256 254 257 266 256 256 256 255 257 257 258 257 256 256 256 259 258 258 257 257 259 261 262 264 265 266 268 270 272 272 272 272
265 264 263 263 263 261 259 259 257 257 256 254 255 256 256 256 255 253 253 255 257 257 255 252 251 251 250 250 250 251 252 255 257 258 261 262 263 265 266 267 269 270 270
263 263 262 262 261 260 259 257 256 257 255 255 255 256 255 254 252 252 251 250 250 250 248 248 249 249 248 250 251 250 249 252 254 258 256 259 261 262 263 264 265 266 268
261 261 260 260 259 258 257 256 256 253 254 255 255 255 254 252 251 249 248 248 247 248 249 249 247 248 249 250 251 251 252 257 256 256 254 256 259 259 261 263 263 264 265
260 259 258 257 257 256 254 255 254 254 253 251 249 248 248 248 248 248 249 249 249 249 250 249 250 251 252 251 252 254 259 262 260 261 261 259 259 261 260 261 261 262 262
Wind_Speed
18 18 17 17 17 14 13 12 12 11 12 13 12 12 12 13 13 13 12 12 12 12 11 11 13 11 9 8 8 7 8 8 9 2 1 3 8 10 10 9 8 8 7
18 18 19 17 16 16 16 14 12 13 11 14 13 12 12 13 12 12 12 10 12 12 13 12 13 7 8 8 7 10 9 6 5 7 3 3 4 9 9 10 8 6 7
15 16 16 16 15 16 17 15 12 12 11 11 11 12 12 11 11 11 11 10 10 11 10 8 9 7 8 8 9 8 7 4 6 4 5 2 2 4 3 3 6 6 6
13 14 14 14 15 14 14 11 10 11 11 11 10 10 8 8 8 7 6 6 6 6 6 8 8 9 10 8 6 8 5 5 4 2 2 3 2 1 2 6 6 6 7
12 12 12 7 7 7 8 7 7 7 6 6 7 6 6 6 5 7 7 6 6 5 3 3 4 4 7 7 5 5 6 4 2 3 2 2 3 4 9 5 7 6 6
11 10 8 8 8 7 7 8 7 7 7 7 6 6 6 3 3 4 4 4 4 4 4 5 5 5 7 9 12 9 12 8 7 5 3 3 7 5 5 6 6 5 4
8 8 8 9 8 7 7 7 7 6 5 5 5 5 4 4 5 7 7 4 3 3 4 4 4 3 4 5 6 7 8 10 5 7 6 10 6 9 7 7 9 6 4
8 8 8 10 10 8 7 7 6 4 5 5 5 5 5 4 4 4 4 3 2 0 1 2 2 4 3 4 3 2 2 3 3 2 2 0 2 6 8 6 7 3 2
9 8 7 8 10 9 8 7 5 6 4 4 4 5 5 5 6 6 6 4 4 3 2 2 1 1 2 5 4 4 3 2 3 4 4 5 7 11 10 7 4 4 3
7 8 7 8 9 9 8 7 3 3 5 5 6 5 6 5 7 7 6 2 3 2 3 3 2 2 2 5 3 3 4 3 5 4 2 3 5 8 15 6 7 6 4
8 8 8 7 8 8 7 4 5 7 7 6 7 5 5 5 5 8 6 3 3 2 2 2 2 5 6 7 7 4 5 4 7 5 4 3 2 4 5 5 5 7 5
8 9 9 8 6 6 9 7 7 7 7 5 6 6 4 4 7 8 8 6 4 3 1 1 2 5 7 7 5 8 5 1 1 2 3 2 2 3 3 3 2 2 3
10 9 9 9 7 7 9 8 6 6 5 4 5 5 4 4 5 11 10 9 7 2 1 1 4 6 7 4 5 4 2 1 1 1 0 1 1 1 3 2 2 2 1
12 10 8 9 9 8 7 6 6 6 6 5 5 4 4 4 3 3 3 3 6 4 4 3 4 4 5 3 2 3 4 2 2 2 2 1 2 2 2 2 1 2 1
10 9 9 8 10 10 9 7 7 6 5 6 5 4 4 4 3 5 4 1 1 2 4 2 2 2 2 3 2 1 3 3 3 3 3 3 3 3 3 3 2 2 4
9 8 7 7 7 8 9 10 17 16 18 17 16 9 3 8 7 7 7 7 7 7 3 1 1 1 1 1 2 1 1 3 4 4 4 4 4 4 5 3 4 5 6
10 9 8 8 7 7 6 9 10 12 19 19 17 15 14 13 12 12 8 9 11 6 3 1 0 1 0 2 2 2 3 2 2 3 3 2 2 3 3 4 4 5 6
10 11 8 8 7 6 6 6 6 7 6 2 12 14 14 14 15 17 12 11 5 8 6 6 7 7 6 4 2 2 2 3 2 3 2 3 3 4 3 4 5 6 7
8 7 8 7 6 7 7 7 6 6 6 3 2 7 10 15 17 19 19 7 7 7 6 6 6 6 6 7 7 7 7 5 3 3 2 3 3 3 6 5 6 8 8
8 11 9 6 6 6 5 6 6 6 5 4 5 4 4 6 6 4 4 3 5 3 4 4 4 3 4 4 4 4 4 5 7 7 6 3 4 4 7 7 6 7 7
6 7 9 7 7 6 6 6 5 5 4 4 2 2 12 4 2 2 3 4 3 3 4 4 4 3 3 3 4 4 5 5 5 6 6 6 7 8 7 7 7 7 7
6 6 6 7 6 6 5 4 4 4 3 4 2 4 10 3 4 2 2 2 2 2 1 3 2 2 3 3 3 3 3 4 4 5 6 7 7 8 8 8 7 6 7
7 7 7 6 6 6 4 3 3 4 3 3 1 1 2 3 1 1 1 2 3 3 1 2 1 2 2 2 2 2 2 3 4 4 6 6 7 7 7 8 9 8 7
6 6 6 5 4 4 3 3 2 4 3 2 2 1 2 0 0 2 2 2 2 3 1 1 1 2 3 4 3 3 3 4 4 4 4 5 6 7 7 8 8 10 9
5 5 5 4 3 3 4 3 2 1 0 0 0 1 1 1 1 2 3 3 2 3 3 3 2 3 5 7 7 7 8 9 6 5 3 5 6 7 7 7 8 9 9
4 5 4 3 3 2 2 1 1 1 2 2 3 3 2 2 3 3 3 3 2 3 4 3 4 7 8 6 8 9 11 11 8 10 6 3 3 5 5 6 9 8 9
Wind_Direction
191 192 195 197 200 196 201 201 200 189 187 192 197 196 200 204 207 210 218 217 210 218 214 213 224 224 222 225 226 226 229 210 234 112 132 138 179 182 177 177 179 196 202
187 188 194 193 191 195 203 201 190 197 190 194 199 199 201 206 204 207 210 207 211 217 220 217 227 219 217 224 217 227 226 221 225 183 171 172 178 211 180 176 184 192 195
182 186 192 191 190 196 204 207 199 191 195 199 199 204 207 203 200 204 206 209 213 222 227 214 224 208 212 215 218 219 216 199 204 146 165 118 108 171 163 179 187 194 201
173 178 189 186 189 191 197 194 186 186 195 200 205 205 196 191 190 177 179 184 202 212 218 212 213 204 216 215 210 214 208 197 183 117 124 136 144 184 164 181 192 202 208
167 173 182 158 143 139 146 145 138 143 153 151 141 143 150 161 177 176 191 199 195 213 221 234 241 235 220 203 195 212 198 180 133 144 155 165 168 176 197 183 200 179 217
163 161 135 131 133 138 133 133 129 133 138 139 160 162 168 127 87 116 149 153 151 183 236 250 243 242 244 235 226 223 196 185 195 177 166 209 197 195 158 177 175 157 219
131 124 130 127 124 124 119 120 127 135 119 120 117 113 114 117 159 169 171 161 167 214 230 245 263 247 243 248 243 220 216 218 176 191 185 202 187 194 151 166 183 189 197
112 119 125 129 126 127 124 120 114 118 123 129 135 139 135 112 99 103 128 117 123 321 308 321 302 320 268 227 198 172 168 214 221 187 173 154 160 159 176 171 179 140 50
124 126 129 130 129 124 118 123 121 119 117 116 108 96 104 81 72 88 99 85 88 74 59 56 36 327 322 207 173 182 179 228 176 161 151 166 175 173 158 131 147 143 220
124 125 121 128 125 122 126 116 105 114 110 103 88 82 85 98 77 90 109 115 100 84 49 63 37 332 307 234 211 174 208 206 170 150 160 187 175 176 175 180 161 197 193
108 119 115 109 111 117 115 107 116 105 100 97 97 83 87 78 69 63 101 82 97 82 61 29 33 345 317 295 257 211 210 162 188 170 152 146 164 180 183 189 202 214 205
105 103 101 104 107 111 108 102 103 104 103 100 103 83 62 63 68 60 63 75 141 121 111 89 38 358 335 337 316 297 274 213 89 138 146 163 183 201 223 206 162 142 104
104 97 99 98 95 97 107 102 97 92 100 96 88 78 69 45 52 54 51 51 49 116 132 102 16 9 8 23 6 345 279 61 30 3 219 221 244 28 101 108 107 111 109
108 101 98 100 97 84 78 79 91 94 98 97 99 97 89 79 55 41 49 48 42 49 42 35 27 31 31 17 42 51 127 171 199 222 226 197 128 160 190 165 188 149 106
103 105 98 94 91 90 81 84 77 59 87 99 89 85 81 61 31 32 41 60 129 94 100 73 43 23 20 357 349 103 149 170 224 226 216 218 209 165 198 170 196 195 222
106 98 97 101 95 92 98 96 85 89 88 86 84 88 64 75 61 59 55 50 49 79 93 98 79 66 21 1 310 308 223 216 232 240 221 217 229 221 229 184 202 209 242
115 110 99 94 102 110 114 119 115 85 83 77 72 71 68 65 58 45 58 58 53 62 55 77 86 51 149 242 237 256 267 243 239 232 240 232 231 233 209 233 215 230 240
97 101 107 107 114 111 107 104 110 118 112 63 56 60 58 59 56 44 45 52 41 32 28 24 25 20 9 338 300 259 265 267 255 252 247 248 243 246 226 230 239 234 239
104 107 103 100 91 96 104 102 103 96 92 99 43 43 30 54 57 50 48 53 49 40 25 27 22 17 12 4 357 354 346 325 294 265 243 236 246 243 261 250 241 233 237
87 83 84 93 95 89 85 91 82 79 73 60 55 26 354 32 39 31 44 53 64 47 26 22 10 9 350 348 343 338 344 353 349 346 327 270 246 241 265 262 250 251 243
92 84 99 94 83 79 74 80 85 88 90 70 50 333 72 99 78 34 43 47 44 33 35 29 14 11 14 15 352 352 356 346 345 345 341 333 329 324 288 261 259 255 251
83 84 74 78 80 76 80 82 93 96 83 81 35 4 72 85 91 99 70 68 27 23 51 64 14 355 3 358 343 339 338 327 323 330 329 328 319 318 314 309 288 258 249
80 82 77 78 88 97 84 91 99 96 111 121 148 99 42 55 66 69 41 18 23 358 3 70 34 325 321 317 320 272 262 287 284 296 304 311 309 310 312 306 303 298 279
73 84 95 91 90 102 96 93 98 90 91 115 108 112 79 83 75 316 321 325 331 289 290 301 343 298 305 299 291 281 268 264 247 253 281 294 299 305 307 306 302 300 303
77 85 90 94 90 91 95 74 90 109 141 107 94 355 296 281 313 336 288 273 277 296 306 300 293 284 278 290 299 300 286 290 278 264 248 250 261 272 285 296 301 302 298
74 75 81 92 96 97 97 111 170 278 302 291 265 264 286 293 262 249 258 280 292 286 286 263 265 281 290 285 281 282 282 291 290 271 264 229 268 301 299 299 300 297 293